SCP
0 0 0 -0 -0 -0 -0 0 0 0 0 0 0 0 0 0 0 0 0 0 0 0 0 0 0 0 0 0 -0 0 0 0 0 0 0 -0 -0 0
0 -0 -0 -0 -0 0 0 0 0 0 0 0 0 0 0 0 0 0 0 0 0 0 0 0 0 0 0 0 0 0 -0 0 0 0 -0 0 -0 -0
0 -0 0 -0 0 0 0 0 0 0 0 0 0 0 0 0 0 0 0 0 0 -0 -0 0 0 0 0 0 0 0 0 0 0 0 -0 -0 -0 -0
-0 0 0 0 0 0 0 0 0 0 0 0 0 0 0 0 0 0 0 0 0 -0 -0 -0 -0 -0 0 0 0 -0 0 0 -0 -0 -0 -0 -0 -0
0 0 0 -0 0 0 -0 0 0 0 0 0 0 0 0 0 0 0 0 0 0 -0 0 -0 -0 -0 0 0 -0 0 -0 0 -0 -0 -0 -0 -0 -0
0 0 0 0 0 0 0 0 0 0 0 0 0 0 0 0 0 0 0 0 0 0 0 0 0 -0 -0 -0 0 0 0 0 -0 -0 -0 -0 -0 0
0 -0 -0 0 0 0 0 0 0 0 0 0 0 0 0 0 0 0 0 0 0 0 0 0 0 0 0 0 0 -0 0 -0 -0 -0 -0 -0 -0 0
-0 0 -0 0 0 0 0 0 0 0 0 0 0 0 0 0 0 0 0 0 0 0 0 0 0 -0 0 0 0 -0 -0 -0 -0 -0 -0 -0 0 0
-0 -0 -0 0 0 0 0 0 0 0 0 0 0 0 0 0 0 0 0 0 0 0 -0 0 0 0 0 0 0 -0 -0 -0 -0 -0 -0 0 0 0
-0 -0 -0 0 0 0 0 0 0 0 0 0 0 0 0 0 0 0 0 0 0 0 0 0 0 0 0 0 0 -0 0 -0 -0 -0 -0 0 0 0
-0 -0 0 0 0 0 0 0 0 0 0 0 0 0 0 0 0 0 0 0 0 0 0 0 0 0 0 -0 -0 0 -0 -0 -0 -0 0 0 0 0
0 0 0 0 0 0 0 0 0 0 0 0 0 0 0 0 0 0 0 0 0 0 0 0 0 0 0 0 -0 0 -0 -0 -0 0 0 0 0 0
0 0 0 0 0 0 0 0 0 0 0 0 0 0 0 0 0 0 0 0 0 0 0 0 -0 0 0 0 0 0 -0 -0 -0 0 0 0 0 0
0 -0 0 0 0 0 0 0 0 0 -0 -0 0 -0 0 0 0 0 0 0 0 0 -0 0 0 -0 0 0 0 -0 -0 0 0 0 0 0 0 0
0 -0 -0 -0 -0 0 -0 -0 0 -0 -0 -0 0 0 0 0 0 0 0 0 0 0 -0 -0 0 0 0 -0 0 0 0 0 0 0 0 0 0 0
-0 0 -0 -0 -0 -0 -0 -0 -0 0 0 0 0 0 0 0 0 0 0 0 0 0 0 0 0 0 0 -0 -0 0 0 0 0 0 0 0 0 0
-0 -0 -0 -0 -0 -0 0 0 -0 0 0 0 0 0 0 0 0 0 0 -0 -0 -0 0 0 0 -0 -0 -0 -0 0 0 0 0 0 0 0 0 0
0 -0 -0 -0 -0 0 0 0 0 0 0 0 0 -0 0 0 0 -0 -0 -0 0 0 0 0 0 0 -0 0 -0 0 0 0 0 0 0 0 0 0
0 -0 -0 -0 -0 -0 0 0 0 0 0 -0 0 0 0 0 0 -0 -0 -0 -0 -0 0 0 0 0 -0 -0 0 0 0 0 0 0 0 0 0 0
-0 -0 -0 -0 0 -0 0 0 0 -0 0 0 0 0 0 0 -0 -0 -0 -0 -0 0 0 -0 -0 0 0 0 -0 0 0 0 0 0 0 0 0 0
0 0 -0 -0 0 0 -0 0 0 -0 -0 -0 -0 -0 -0 -0 -0 -0 -0 -0 -0 0 0 -0 0 0 0 0 0 0 0 0 0 0 0 0 0 0
0 0 -0 -0 -0 -0 -0 -0 0 -0 -0 -0 -0 -0 -0 -0 -0 -0 -0 -0 0 -0 -0 -0 0 0 0 0 0 0 0 0 0 0 0 0 0 0
-0 -0 0 0 0 -0 -0 -0 0 0 0 0 0 0 0 0 0 -0 -0 -0 -0 -0 0 0 0 0 0 0 0 0 0 0 0 0 0 0 0 0
Wind_Speed_500mb
15 16 15 14 20 21 22 16 15 18 24 22 22 32 30 28 24 29 27 31 33 32 33 41 38 40 43 39 44 52 50 35 35 34 32 31 25 23
14 17 16 14 21 28 25 19 16 16 18 22 28 29 31 32 31 32 30 32 34 36 43 44 40 52 42 44 55 49 40 41 41 36 30 25 24 14
15 16 15 18 20 22 23 22 20 14 15 22 24 23 29 30 36 38 32 34 34 32 49 47 50 46 50 54 50 45 43 37 35 29 26 20 14 10
19 18 19 20 25 23 20 19 22 20 16 20 30 28 27 25 32 35 35 38 36 61 60 39 39 42 61 52 42 41 32 31 27 24 18 13 9 7
23 20 20 22 27 25 22 21 20 23 21 25 40 37 32 28 37 41 47 44 62 79 45 50 60 64 61 50 46 38 31 26 21 17 13 10 7 6
21 21 22 21 21 23 21 19 22 30 33 35 43 40 42 43 46 57 64 69 83 64 66 68 68 62 55 49 36 35 28 21 16 13 11 7 7 7
21 20 22 22 21 20 19 19 27 36 38 48 50 50 49 59 61 61 81 89 72 61 70 68 62 53 46 43 43 32 24 18 14 12 10 8 7 6
21 27 25 23 20 19 24 22 30 37 42 57 56 57 61 66 71 80 96 89 82 73 75 63 51 47 44 49 38 31 21 16 14 11 9 7 4 8
20 24 26 21 18 25 26 28 26 27 35 48 55 64 68 66 80 92 82 75 87 78 65 55 44 45 49 48 37 29 21 18 13 13 10 9 10 11
16 17 19 25 25 24 31 35 31 27 29 37 44 54 64 70 85 79 84 82 75 64 54 54 50 50 51 44 34 28 24 20 17 14 14 15 15 16
21 24 18 17 19 22 34 44 42 38 32 33 44 47 62 75 70 66 73 77 70 61 55 57 53 44 44 41 34 29 24 20 19 18 18 19 20 21
20 13 15 23 25 32 40 46 48 42 38 45 49 47 57 62 64 64 65 63 63 53 48 31 47 35 24 36 33 28 26 23 22 22 21 21 23 26
29 34 30 30 30 35 38 39 45 42 40 46 52 56 67 62 62 58 41 33 35 19 48 33 41 40 21 28 31 27 24 24 23 24 24 24 28 32
41 40 35 29 35 41 33 42 50 54 54 58 70 73 59 57 51 48 33 31 28 20 42 39 37 35 17 15 14 23 26 26 26 29 32 35 38 42
43 46 44 35 33 37 48 50 57 66 66 68 63 52 43 37 42 36 33 37 19 21 36 28 28 29 26 17 11 13 13 16 22 27 34 38 42 47
47 48 49 48 44 51 50 43 37 47 44 43 39 42 41 44 40 36 34 39 30 18 34 34 26 21 21 23 22 22 24 24 32 36 41 47 50 52
50 50 49 46 50 48 40 33 33 41 37 38 43 47 41 40 36 37 32 37 30 23 26 31 30 26 24 25 29 29 33 38 40 45 48 51 53 55
45 49 49 47 45 37 30 32 35 40 38 42 42 39 37 37 34 35 29 32 30 24 23 27 28 27 30 34 36 36 33 36 36 41 45 50 51 50
41 44 44 48 47 43 34 37 41 40 43 38 37 36 34 34 38 32 31 30 29 27 26 28 33 34 30 37 30 36 34 37 42 47 50 52 53 52
33 39 39 36 41 43 43 36 34 42 45 42 37 36 37 35 36 33 33 33 32 29 29 33 44 45 43 39 39 39 53 52 53 53 54 58 60 60
35 36 32 37 35 35 38 47 39 44 48 47 43 41 39 37 36 35 34 37 37 33 36 39 41 48 47 53 58 55 52 49 52 57 59 61 61 64
25 25 26 28 34 38 38 47 52 50 53 51 46 43 42 41 40 39 40 40 41 45 43 40 37 48 51 57 61 59 58 55 59 63 67 66 64 53
29 28 27 27 27 28 32 42 50 52 51 51 47 48 46 48 50 47 46 45 45 45 44 42 38 52 58 60 65 68 65 65 70 73 76 73 74 78
Wind_Direction_500mb
245 243 242 225 206 204 188 186 163 162 178 182 186 195 197 203 197 185 179 189 186 188 194 177 172 173 169 153 148 143 153 151 154 155 154 149 151 158
243 235 227 212 198 196 204 206 203 180 182 182 190 192 196 198 192 186 185 181 182 186 177 174 174 171 163 155 150 148 153 154 156 151 150 153 169 187
234 226 213 205 192 189 201 208 202 194 169 178 189 193 191 195 191 187 180 176 179 183 182 168 171 166 157 152 151 153 157 159 157 153 162 170 192 203
225 220 213 210 205 201 198 195 199 195 176 177 165 161 173 187 187 185 175 170 165 189 156 156 174 170 150 151 158 161 158 154 157 162 168 177 192 209
217 215 211 205 200 201 205 202 199 188 173 177 164 165 162 173 155 157 158 157 173 167 152 156 155 152 156 155 153 151 151 157 158 168 168 180 197 234
209 208 204 204 203 201 204 209 198 182 183 167 164 167 165 166 161 165 153 161 149 147 148 147 152 157 157 161 162 155 162 160 162 169 178 187 209 251
196 194 200 202 202 207 212 198 182 186 176 170 164 161 161 160 158 155 153 147 144 156 151 155 157 157 164 163 155 162 163 169 171 179 191 195 227 258
195 196 197 198 207 218 191 187 187 186 176 173 170 168 162 160 162 158 155 143 145 159 158 155 162 161 173 163 168 166 174 181 186 197 197 214 257 266
177 181 181 182 185 172 168 164 177 189 195 182 172 170 168 171 163 154 152 149 154 161 162 155 168 173 172 175 178 183 190 194 205 202 208 222 240 256
160 167 168 159 153 154 152 141 142 156 174 182 177 172 170 173 163 160 164 160 155 158 171 162 168 174 182 185 190 198 199 206 207 214 227 241 254 265
142 146 160 172 166 164 151 146 147 159 165 179 179 174 174 171 172 170 156 156 154 164 170 167 171 177 180 191 200 201 208 213 216 228 242 255 266 276
148 154 154 143 155 158 155 153 148 153 158 166 170 175 176 174 167 164 160 156 160 168 181 174 178 174 184 194 200 207 213 217 229 241 252 261 272 281
136 126 119 136 144 149 148 152 150 149 155 162 161 158 158 163 163 164 156 158 155 165 173 168 174 172 167 200 209 216 222 229 241 253 262 271 279 283
132 122 118 132 139 150 148 140 136 138 145 148 150 153 157 161 166 173 167 166 165 171 171 174 181 181 170 175 208 230 236 244 254 265 272 276 278 281
131 128 128 133 126 135 128 126 136 138 140 144 151 159 163 164 173 175 175 173 160 176 181 182 189 202 207 210 220 237 247 255 262 271 277 279 281 281
133 130 134 137 140 143 135 136 142 146 150 151 153 158 165 166 168 172 174 177 182 161 180 189 191 192 203 225 236 247 258 263 276 278 280 281 284 286
143 138 142 142 150 153 160 160 158 160 156 158 161 163 162 167 174 180 184 190 195 199 194 199 210 219 229 241 255 262 269 277 279 281 283 284 287 290
155 154 156 155 155 158 161 164 167 168 170 169 169 171 174 177 182 187 191 196 202 207 208 218 224 239 252 259 262 272 278 286 288 288 288 287 292 292
168 166 166 166 169 170 170 173 174 177 178 178 179 180 183 187 193 194 198 203 210 214 223 226 238 246 250 262 271 281 282 286 289 294 294 294 293 291
180 184 180 181 184 186 185 180 181 185 186 189 191 195 195 195 201 205 210 216 220 227 234 239 248 252 254 264 275 273 291 293 292 294 291 291 291 293
190 196 194 198 196 194 197 196 195 196 198 201 203 207 210 211 215 218 222 226 227 233 243 247 254 266 271 271 274 282 289 290 289 289 289 287 289 293
186 186 191 200 206 204 205 209 209 208 211 214 215 218 220 222 225 229 232 235 242 249 252 256 257 266 270 274 279 284 286 282 290 292 292 292 287 284
205 202 203 202 203 208 216 223 224 223 223 223 223 225 227 230 235 237 239 243 245 247 250 256 257 267 274 277 281 284 288 288 289 294 297 294 293 294
Wind_Speed_850mb
15 16 15 14 20 21 22 16 15 18 24 22 22 32 30 28 24 29 27 31 33 32 33 41 38 40 43 39 44 52 50 35 35 34 32 31 25 23
14 17 16 14 21 28 25 19 16 16 18 22 28 29 31 32 31 32 30 32 34 36 43 44 40 52 42 44 55 49 40 41 41 36 30 25 24 14
15 16 15 18 20 22 23 22 20 14 15 22 24 23 29 30 36 38 32 34 34 32 49 47 50 46 50 54 50 45 43 37 35 29 26 20 14 10
19 18 19 20 25 23 20 19 22 20 16 20 30 28 27 25 32 35 35 38 36 61 60 39 39 42 61 52 42 41 32 31 27 24 18 13 9 7
23 20 20 22 27 25 22 21 20 23 21 25 40 37 32 28 37 41 47 44 62 79 45 50 60 64 61 50 46 38 31 26 21 17 13 10 7 6
21 21 22 21 21 23 21 19 22 30 33 35 43 40 42 43 46 57 64 69 83 64 66 68 68 62 55 49 36 35 28 21 16 13 11 7 7 7
21 20 22 22 21 20 19 19 27 36 38 48 50 50 49 59 61 61 81 89 72 61 70 68 62 53 46 43 43 32 24 18 14 12 10 8 7 6
21 27 25 23 20 19 24 22 30 37 42 57 56 57 61 66 71 80 96 89 82 73 75 63 51 47 44 49 38 31 21 16 14 11 9 7 4 8
20 24 26 21 18 25 26 28 26 27 35 48 55 64 68 66 80 92 82 75 87 78 65 55 44 45 49 48 37 29 21 18 13 13 10 9 10 11
16 17 19 25 25 24 31 35 31 27 29 37 44 54 64 70 85 79 84 82 75 64 54 54 50 50 51 44 34 28 24 20 17 14 14 15 15 16
21 24 18 17 19 22 34 44 42 38 32 33 44 47 62 75 70 66 73 77 70 61 55 57 53 44 44 41 34 29 24 20 19 18 18 19 20 21
20 13 15 23 25 32 40 46 48 42 38 45 49 47 57 62 64 64 65 63 63 53 48 31 47 35 24 36 33 28 26 23 22 22 21 21 23 26
29 34 30 30 30 35 38 39 45 42 40 46 52 56 67 62 62 58 41 33 35 19 48 33 41 40 21 28 31 27 24 24 23 24 24 24 28 32
41 40 35 29 35 41 33 42 50 54 54 58 70 73 59 57 51 48 33 31 28 20 42 39 37 35 17 15 14 23 26 26 26 29 32 35 38 42
43 46 44 35 33 37 48 50 57 66 66 68 63 52 43 37 42 36 33 37 19 21 36 28 28 29 26 17 11 13 13 16 22 27 34 38 42 47
47 48 49 48 44 51 50 43 37 47 44 43 39 42 41 44 40 36 34 39 30 18 34 34 26 21 21 23 22 22 24 24 32 36 41 47 50 52
50 50 49 46 50 48 40 33 33 41 37 38 43 47 41 40 36 37 32 37 30 23 26 31 30 26 24 25 29 29 33 38 40 45 48 51 53 55
45 49 49 47 45 37 30 32 35 40 38 42 42 39 37 37 34 35 29 32 30 24 23 27 28 27 30 34 36 36 33 36 36 41 45 50 51 50
41 44 44 48 47 43 34 37 41 40 43 38 37 36 34 34 38 32 31 30 29 27 26 28 33 34 30 37 30 36 34 37 42 47 50 52 53 52
33 39 39 36 41 43 43 36 34 42 45 42 37 36 37 35 36 33 33 33 32 29 29 33 44 45 43 39 39 39 53 52 53 53 54 58 60 60
35 36 32 37 35 35 38 47 39 44 48 47 43 41 39 37 36 35 34 37 37 33 36 39 41 48 47 53 58 55 52 49 52 57 59 61 61 64
25 25 26 28 34 38 38 47 52 50 53 51 46 43 42 41 40 39 40 40 41 45 43 40 37 48 51 57 61 59 58 55 59 63 67 66 64 53
29 28 27 27 27 28 32 42 50 52 51 51 47 48 46 48 50 47 46 45 45 45 44 42 38 52 58 60 65 68 65 65 70 73 76 73 74 78
Wind_Direction_850mb
245 243 242 225 206 204 188 186 163 162 178 182 186 195 197 203 197 185 179 189 186 188 194 177 172 173 169 153 148 143 153 151 154 155 154 149 151 158
243 235 227 212 198 196 204 206 203 180 182 182 190 192 196 198 192 186 185 181 182 186 177 174 174 171 163 155 150 148 153 154 156 151 150 153 169 187
234 226 213 205 192 189 201 208 202 194 169 178 189 193 191 195 191 187 180 176 179 183 182 168 171 166 157 152 151 153 157 159 157 153 162 170 192 203
225 220 213 210 205 201 198 195 199 195 176 177 165 161 173 187 187 185 175 170 165 189 156 156 174 170 150 151 158 161 158 154 157 162 168 177 192 209
217 215 211 205 200 201 205 202 199 188 173 177 164 165 162 173 155 157 158 157 173 167 152 156 155 152 156 155 153 151 151 157 158 168 168 180 197 234
209 208 204 204 203 201 204 209 198 182 183 167 164 167 165 166 161 165 153 161 149 147 148 147 152 157 157 161 162 155 162 160 162 169 178 187 209 251
196 194 200 202 202 207 212 198 182 186 176 170 164 161 161 160 158 155 153 147 144 156 151 155 157 157 164 163 155 162 163 169 171 179 191 195 227 258
195 196 197 198 207 218 191 187 187 186 176 173 170 168 162 160 162 158 155 143 145 159 158 155 162 161 173 163 168 166 174 181 186 197 197 214 257 266
177 181 181 182 185 172 168 164 177 189 195 182 172 170 168 171 163 154 152 149 154 161 162 155 168 173 172 175 178 183 190 194 205 202 208 222 240 256
160 167 168 159 153 154 152 141 142 156 174 182 177 172 170 173 163 160 164 160 155 158 171 162 168 174 182 185 190 198 199 206 207 214 227 241 254 265
142 146 160 172 166 164 151 146 147 159 165 179 179 174 174 171 172 170 156 156 154 164 170 167 171 177 180 191 200 201 208 213 216 228 242 255 266 276
148 154 154 143 155 158 155 153 148 153 158 166 170 175 176 174 167 164 160 156 160 168 181 174 178 174 184 194 200 207 213 217 229 241 252 261 272 281
136 126 119 136 144 149 148 152 150 149 155 162 161 158 158 163 163 164 156 158 155 165 173 168 174 172 167 200 209 216 222 229 241 253 262 271 279 283
132 122 118 132 139 150 148 140 136 138 145 148 150 153 157 161 166 173 167 166 165 171 171 174 181 181 170 175 208 230 236 244 254 265 272 276 278 281
131 128 128 133 126 135 128 126 136 138 140 144 151 159 163 164 173 175 175 173 160 176 181 182 189 202 207 210 220 237 247 255 262 271 277 279 281 281
133 130 134 137 140 143 135 136 142 146 150 151 153 158 165 166 168 172 174 177 182 161 180 189 191 192 203 225 236 247 258 263 276 278 280 281 284 286
143 138 142 142 150 153 160 160 158 160 156 158 161 163 162 167 174 180 184 190 195 199 194 199 210 219 229 241 255 262 269 277 279 281 283 284 287 290
155 154 156 155 155 158 161 164 167 168 170 169 169 171 174 177 182 187 191 196 202 207 208 218 224 239 252 259 262 272 278 286 288 288 288 287 292 292
168 166 166 166 169 170 170 173 174 177 178 178 179 180 183 187 193 194 198 203 210 214 223 226 238 246 250 262 271 281 282 286 289 294 294 294 293 291
180 184 180 181 184 186 185 180 181 185 186 189 191 195 195 195 201 205 210 216 220 227 234 239 248 252 254 264 275 273 291 293 292 294 291 291 291 293
190 196 194 198 196 194 197 196 195 196 198 201 203 207 210 211 215 218 222 226 227 233 243 247 254 266 271 271 274 282 289 290 289 289 289 287 289 293
186 186 191 200 206 204 205 209 209 208 211 214 215 218 220 222 225 229 232 235 242 249 252 256 257 266 270 274 279 284 286 282 290 292 292 292 287 284
205 202 203 202 203 208 216 223 224 223 223 223 223 225 227 230 235 237 239 243 245 247 250 256 257 267 274 277 281 284 288 288 289 294 297 294 293 294